Zurück zum Katalog

STARLINK-37634

AktivKommunikationSSO
NORAD 69028·PAYLOAD·🇺🇸 United States

Gestartet May 6, 2026 von Vandenberg Space Force Base

Loading…

Nächste Überflüge (nächste 24 Stunden)

TLE

AktuellSource: CelesTrak SupGP

Epoche: Sep 14, 2026, 21:41 UTC

1 69028C 26101D   26257.90395833  .00060721  00000+0  18845-2 0  2577
2 69028  97.2844 111.5246 0001800  96.0045 312.0723 15.33414823    17

Verfolge STARLINK-37634 in Echtzeit mit AllMySat

Download on the App Store